COSMOS 2251 DEB, 33835

Orbit data source: Space-Track

COSMOS 2251 DEB, 33835 is space debris in LEO originally from a launch on Wed, 16 Jun 1993 UTC launched from the Plesetsk Missile And Space Complex (PKMTR). The debris from Iridium 33, an American commercial communications satellite, has been tracked extensively since its accidental collision with the defunct Russian satellite Cosmos 2251 in 2009. This event, occurring at high speed in low Earth orbit (LEO), generated thousands of pieces of space debris, significantly increasing the risk of further collisions. The Iridium 33 debris cloud has impacted space traffic management and orbital debris mitigation strategies, making it a subject of ongoing study in space situational awareness.

Loading next visibility...
Identifier
33835, 1993-036CC
Orbit
LEO
Country
Flag of CISCIS
Related business
Manufacturer
Unknown
Mission
Spacecraft
Bus & Motor
Unknown
Mass
Unknown
Launch date (UTC)
1993-06-16 (33 years ago)
Launch vehicle
Unknown
Launch site
Plesetsk Missile And Space Complex (PKMTR)
Object type
Payload
Rocket body
Debris
Shape & HBR
Unknown shape, 0.1 m
Radar Cross Section
Small (<0.1 m²)

Expand to show TLE details & history
Last TLE update: 16 hours ago

TLE from 16 hours ago
0 COSMOS 2251 DEB
1 33835U 93036CC  26145.50055997  .00002597  00000-0  49398-3 0  9990
2 33835  74.0549 147.4562 0054019 160.0610   3.2679 14.63723890911848
Epoch: 2026-05-25T12:00Z
TLE epoch observation values (Epoch: 2026-05-25T12:00:48.381Z)
Latitude
15.96497°
Longitude
-100.49577°
Altitude
645.071 km
Speed
7.557 km/s
True Right ascension
21h 31m 10s
True Declination
15° 52' 22"
Sunlit
Object was in daylight at epoch
Visualization orbit readout
Latitude
Unknown
Longitude
Unknown
Altitude
Unknown
Speed
Unknown
Apparent Right ascension
Unknown
Apparent Declination
Unknown
Sunlit
N/A
Visualization observer readout
Local Sidereal Time
13:01:07
Azimuth
Unknown
Elevation
Unknown
Doppler factor
Unknown
Orbital elements
Apogee altitude
716.888 km
Perigee altitude
640.646 km
Semi-major axis
7,056.904 km
Eccentricity
0.0054
Inclination
74.0549°
RAAN
147.4562°
Arg. of periapsis
160.061°
True anomaly
3.30343°
Mean anomaly
3.2679°
Eccentric anomaly
3.28564°
Mean motion
3.66119 °/min
Orbital period
98.33 mins
BSTAR
0.00049398
Loading maneuver chart data...
Computing Atmospheric mass density...
Loading historical data...
Loading historical data...
Loading historical data...
Loading historical data...
Loading historical data...
Loading historical data...
Loading historical data...

Documentation

Showing up to 5 results
|